Location: Warner Observatory
(35.1353°N, 89.5455°W)
Time: 18:45:20
(UTC-06:00)

Envisat - Pass Details

Date: 30 January 2020
Orbit: 764 x 766 km, 98.1° (Epoch: 20 February)

Event Time Altitude Azimuth Distance (km) Brightness Sun altitude
Rises 18:19:37 0° 182° (S) 3,216 6.4 -11.6°
Reaches altitude 10° 18:22:00 10° 189° (S) 2,294 5.8 -12.1°
Maximum altitude 18:26:50 45° 261° (W) 1,039 4.3 -13.1°
Drops below altitude 10° 18:31:41 10° 334° (NNW) 2,307 5.7 -14.0°
Sets 18:34:06 0° 340° (NNW) 3,237 6.3 -14.5°
